Ver�ffentlichungspflichtige Lastg�nge;;;
Verordnung;StromNZV;;
;� 17;;
;Abs. 2;;
;Nr. 6;;
Lastgang;Summe aller dezentralen Einspeisungen;;
Netz- oder Umspannebenen;MS;Umsg. MS/NS;NS
Arbeit des Lastganges [kWh];0;0;3523297
H�chstleistung [kW];0;0;2290
;;;
01.01.2018 00:15;0;0;191,9
01.01.2018 00:30;0;0;192,4
01.01.2018 00:45;0;0;192,7
01.01.2018 01:00;0;0;193
01.01.2018 01:15;0;0;193,8
01.01.2018 01:30;0;0;193,9
01.01.2018 01:45;0;0;193,9
01.01.2018 02:00;0;0;193,8
01.01.2018 02:15;0;0;194,7
01.01.2018 02:30;0;0;194,9
01.01.2018 02:45;0;0;194,6
01.01.2018 03:00;0;0;195
01.01.2018 03:15;0;0;196,1
01.01.2018 03:30;0;0;195,3
01.01.2018 03:45;0;0;195,1
01.01.2018 04:00;0;0;195,1
01.01.2018 04:15;0;0;195
01.01.2018 04:30;0;0;195
01.01.2018 04:45;0;0;194,9
01.01.2018 05:00;0;0;194,8
01.01.2018 05:15;0;0;193,8
01.01.2018 05:30;0;0;192,5
01.01.2018 05:45;0;0;191,2
01.01.2018 06:00;0;0;189,4
01.01.2018 06:15;0;0;186,9
01.01.2018 06:30;0;0;184,8
01.01.2018 06:45;0;0;183,1
01.01.2018 07:00;0;0;181,6
01.01.2018 07:15;0;0;179,9
01.01.2018 07:30;0;0;178,9
01.01.2018 07:45;0;0;177,9
01.01.2018 08:00;0;0;176,6
01.01.2018 08:15;0;0;175,5
01.01.2018 08:30;0;0;175,3
01.01.2018 08:45;0;0;181,7
01.01.2018 09:00;0;0;194,5
01.01.2018 09:15;0;0;194
01.01.2018 09:30;0;0;219,9
01.01.2018 09:45;0;0;258,7
01.01.2018 10:00;0;0;258,2
01.01.2018 10:15;0;0;329,7
01.01.2018 10:30;0;0;368,9
01.01.2018 10:45;0;0;355,7
01.01.2018 11:00;0;0;493
01.01.2018 11:15;0;0;427,6
01.01.2018 11:30;0;0;454,1
01.01.2018 11:45;0;0;368,6
01.01.2018 12:00;0;0;381,4
01.01.2018 12:15;0;0;401
01.01.2018 12:30;0;0;348,9
01.01.2018 12:45;0;0;323,2
01.01.2018 13:00;0;0;342,5
01.01.2018 13:15;0;0;323
01.01.2018 13:30;0;0;317,4
01.01.2018 13:45;0;0;336,8
01.01.2018 14:00;0;0;310,4
01.01.2018 14:15;0;0;277,7
01.01.2018 14:30;0;0;271,9
01.01.2018 14:45;0;0;252,8
01.01.2018 15:00;0;0;239,5
01.01.2018 15:15;0;0;239,8
01.01.2018 15:30;0;0;200,8
01.01.2018 15:45;0;0;194,5
01.01.2018 16:00;0;0;187,5
01.01.2018 16:15;0;0;173,9
01.01.2018 16:30;0;0;173,9
01.01.2018 16:45;0;0;173,9
01.01.2018 17:00;0;0;174
01.01.2018 17:15;0;0;173,8
01.01.2018 17:30;0;0;174,1
01.01.2018 17:45;0;0;174,1
01.01.2018 18:00;0;0;174
01.01.2018 18:15;0;0;174,7
01.01.2018 18:30;0;0;175,1
01.01.2018 18:45;0;0;175,3
01.01.2018 19:00;0;0;175,2
01.01.2018 19:15;0;0;175,2
01.01.2018 19:30;0;0;175,6
01.01.2018 19:45;0;0;176,1
01.01.2018 20:00;0;0;176,7
01.01.2018 20:15;0;0;177,2
01.01.2018 20:30;0;0;177,7
01.01.2018 20:45;0;0;178,6
01.01.2018 21:00;0;0;179,6
01.01.2018 21:15;0;0;180,3
01.01.2018 21:30;0;0;180,3
01.01.2018 21:45;0;0;180,9
01.01.2018 22:00;0;0;181,4
01.01.2018 22:15;0;0;182,6
01.01.2018 22:30;0;0;182,9
01.01.2018 22:45;0;0;184,5
01.01.2018 23:00;0;0;186,1
01.01.2018 23:15;0;0;187,5
01.01.2018 23:30;0;0;187,8
01.01.2018 23:45;0;0;189
02.01.2018 00:00;0;0;189,7
02.01.2018 00:15;0;0;191,3
02.01.2018 00:30;0;0;191,4
02.01.2018 00:45;0;0;192,1
02.01.2018 01:00;0;0;192,8
02.01.2018 01:15;0;0;193,9
02.01.2018 01:30;0;0;194,3
02.01.2018 01:45;0;0;194,3
02.01.2018 02:00;0;0;193,9
02.01.2018 02:15;0;0;194,3
02.01.2018 02:30;0;0;194,6
02.01.2018 02:45;0;0;194,6
02.01.2018 03:00;0;0;194,8
02.01.2018 03:15;0;0;194,8
02.01.2018 03:30;0;0;195,1
02.01.2018 03:45;0;0;195,3
02.01.2018 04:00;0;0;195,1
02.01.2018 04:15;0;0;194,9
02.01.2018 04:30;0;0;195,3
02.01.2018 04:45;0;0;195
02.01.2018 05:00;0;0;193,8
02.01.2018 05:15;0;0;193
02.01.2018 05:30;0;0;193,5
02.01.2018 05:45;0;0;192,5
02.01.2018 06:00;0;0;190,4
02.01.2018 06:15;0;0;187,4
02.01.2018 06:30;0;0;184,8
02.01.2018 06:45;0;0;182,7
02.01.2018 07:00;0;0;181,5
02.01.2018 07:15;0;0;180,2
02.01.2018 07:30;0;0;179,7
02.01.2018 07:45;0;0;178,3
02.01.2018 08:00;0;0;176,5
02.01.2018 08:15;0;0;174,9
02.01.2018 08:30;0;0;175,2
02.01.2018 08:45;0;0;181,9
02.01.2018 09:00;0;0;194,5
02.01.2018 09:15;0;0;206,4
02.01.2018 09:30;0;0;271,9
02.01.2018 09:45;0;0;311,4
02.01.2018 10:00;0;0;285,1
02.01.2018 10:15;0;0;330,2
02.01.2018 10:30;0;0;329,5
02.01.2018 10:45;0;0;309,9
02.01.2018 11:00;0;0;336,4
02.01.2018 11:15;0;0;486,8
02.01.2018 11:30;0;0;538,9
02.01.2018 11:45;0;0;401,5
02.01.2018 12:00;0;0;564,8
02.01.2018 12:15;0;0;669,5
02.01.2018 12:30;0;0;551,6
02.01.2018 12:45;0;0;402,1
02.01.2018 13:00;0;0;761,8
02.01.2018 13:15;0;0;788,1
02.01.2018 13:30;0;0;696,6
02.01.2018 13:45;0;0;467,9
02.01.2018 14:00;0;0;389,4
02.01.2018 14:15;0;0;389,3
02.01.2018 14:30;0;0;284,4
02.01.2018 14:45;0;0;329,5
02.01.2018 15:00;0;0;284,1
02.01.2018 15:15;0;0;285,2
02.01.2018 15:30;0;0;252,4
02.01.2018 15:45;0;0;213,2
02.01.2018 16:00;0;0;193,6
02.01.2018 16:15;0;0;180
02.01.2018 16:30;0;0;173,9
02.01.2018 16:45;0;0;173,9
02.01.2018 17:00;0;0;174,2
02.01.2018 17:15;0;0;174
02.01.2018 17:30;0;0;174,2
02.01.2018 17:45;0;0;174,2
02.01.2018 18:00;0;0;174,1
02.01.2018 18:15;0;0;173,7
02.01.2018 18:30;0;0;174,6
02.01.2018 18:45;0;0;174,5
02.01.2018 19:00;0;0;175,2
02.01.2018 19:15;0;0;174,8
02.01.2018 19:30;0;0;175,4
02.01.2018 19:45;0;0;175,9
02.01.2018 20:00;0;0;176
02.01.2018 20:15;0;0;176,8
02.01.2018 20:30;0;0;177,1
02.01.2018 20:45;0;0;177,9
02.01.2018 21:00;0;0;178,3
02.01.2018 21:15;0;0;180
02.01.2018 21:30;0;0;180,2
02.01.2018 21:45;0;0;180,6
02.01.2018 22:00;0;0;181
02.01.2018 22:15;0;0;182,3
02.01.2018 22:30;0;0;183
02.01.2018 22:45;0;0;184,7
02.01.2018 23:00;0;0;185,8
02.01.2018 23:15;0;0;187,2
02.01.2018 23:30;0;0;187,8
02.01.2018 23:45;0;0;189,1
03.01.2018 00:00;0;0;189,3
03.01.2018 00:15;0;0;191
03.01.2018 00:30;0;0;191,3
03.01.2018 00:45;0;0;191,6
03.01.2018 01:00;0;0;192,2
03.01.2018 01:15;0;0;193,6
03.01.2018 01:30;0;0;193,4
03.01.2018 01:45;0;0;193,5
03.01.2018 02:00;0;0;193,6
03.01.2018 02:15;0;0;193,9
03.01.2018 02:30;0;0;193,8
03.01.2018 02:45;0;0;194,1
03.01.2018 03:00;0;0;194,4
03.01.2018 03:15;0;0;194,6
03.01.2018 03:30;0;0;194,4
03.01.2018 03:45;0;0;194,5
03.01.2018 04:00;0;0;194,3
03.01.2018 04:15;0;0;194,2
03.01.2018 04:30;0;0;194,1
03.01.2018 04:45;0;0;194
03.01.2018 05:00;0;0;193,2
03.01.2018 05:15;0;0;191,8
03.01.2018 05:30;0;0;191,8
03.01.2018 05:45;0;0;190,6
03.01.2018 06:00;0;0;188,8
03.01.2018 06:15;0;0;187
03.01.2018 06:30;0;0;184,9
03.01.2018 06:45;0;0;182,5
03.01.2018 07:00;0;0;181,1
03.01.2018 07:15;0;0;180,3
03.01.2018 07:30;0;0;179,1
03.01.2018 07:45;0;0;177,8
03.01.2018 08:00;0;0;176,4
03.01.2018 08:15;0;0;175
03.01.2018 08:30;0;0;174,6
03.01.2018 08:45;0;0;174,6
03.01.2018 09:00;0;0;174,5
03.01.2018 09:15;0;0;173,8
03.01.2018 09:30;0;0;199,4
03.01.2018 09:45;0;0;218,9
03.01.2018 10:00;0;0;256,6
03.01.2018 10:15;0;0;306,9
03.01.2018 10:30;0;0;341,3
03.01.2018 10:45;0;0;426
03.01.2018 11:00;0;0;341,3
03.01.2018 11:15;0;0;210,8
03.01.2018 11:30;0;0;210,8
03.01.2018 11:45;0;0;275,7
03.01.2018 12:00;0;0;249,9
03.01.2018 12:15;0;0;223,9
03.01.2018 12:30;0;0;276,1
03.01.2018 12:45;0;0;230,7
03.01.2018 13:00;0;0;596,8
03.01.2018 13:15;0;0;374,8
03.01.2018 13:30;0;0;421,2
03.01.2018 13:45;0;0;454,1
03.01.2018 14:00;0;0;362,5
03.01.2018 14:15;0;0;290,9
03.01.2018 14:30;0;0;297,2
03.01.2018 14:45;0;0;304,1
03.01.2018 15:00;0;0;264,4
03.01.2018 15:15;0;0;238,5
03.01.2018 15:30;0;0;232
03.01.2018 15:45;0;0;199,4
03.01.2018 16:00;0;0;179,7
03.01.2018 16:15;0;0;172,7
03.01.2018 16:30;0;0;173,1
03.01.2018 16:45;0;0;173,1
03.01.2018 17:00;0;0;173,2
03.01.2018 17:15;0;0;172,8
03.01.2018 17:30;0;0;173,1
03.01.2018 17:45;0;0;173,3
03.01.2018 18:00;0;0;173,6
03.01.2018 18:15;0;0;173,2
03.01.2018 18:30;0;0;173,6
03.01.2018 18:45;0;0;174
03.01.2018 19:00;0;0;174,1
03.01.2018 19:15;0;0;174,3
03.01.2018 19:30;0;0;174,6
03.01.2018 19:45;0;0;175,1
03.01.2018 20:00;0;0;175,7
03.01.2018 20:15;0;0;176,3
03.01.2018 20:30;0;0;176,8
03.01.2018 20:45;0;0;177
03.01.2018 21:00;0;0;177,4
03.01.2018 21:15;0;0;178,4
03.01.2018 21:30;0;0;178,9
03.01.2018 21:45;0;0;179,4
03.01.2018 22:00;0;0;179,4
03.01.2018 22:15;0;0;181
03.01.2018 22:30;0;0;181,7
03.01.2018 22:45;0;0;183,1
03.01.2018 23:00;0;0;184
03.01.2018 23:15;0;0;185
03.01.2018 23:30;0;0;185,7
03.01.2018 23:45;0;0;187,1
04.01.2018 00:00;0;0;188,5
04.01.2018 00:15;0;0;189,8
04.01.2018 00:30;0;0;190,1
04.01.2018 00:45;0;0;190,8
04.01.2018 01:00;0;0;191,1
04.01.2018 01:15;0;0;192,1
04.01.2018 01:30;0;0;192,3
04.01.2018 01:45;0;0;192,3
04.01.2018 02:00;0;0;192,4
04.01.2018 02:15;0;0;192,7
04.01.2018 02:30;0;0;192,8
04.01.2018 02:45;0;0;193
04.01.2018 03:00;0;0;192,9
04.01.2018 03:15;0;0;192,8
04.01.2018 03:30;0;0;192,8
04.01.2018 03:45;0;0;193
04.01.2018 04:00;0;0;193
04.01.2018 04:15;0;0;193,2
04.01.2018 04:30;0;0;192,8
04.01.2018 04:45;0;0;192,6
04.01.2018 05:00;0;0;192
04.01.2018 05:15;0;0;191,5
04.01.2018 05:30;0;0;190,8
04.01.2018 05:45;0;0;189,9
04.01.2018 06:00;0;0;188
04.01.2018 06:15;0;0;185,3
04.01.2018 06:30;0;0;183,2
04.01.2018 06:45;0;0;181,4
04.01.2018 07:00;0;0;180
04.01.2018 07:15;0;0;178,5
04.01.2018 07:30;0;0;177,4
04.01.2018 07:45;0;0;176,6
04.01.2018 08:00;0;0;175,6
04.01.2018 08:15;0;0;173,5
04.01.2018 08:30;0;0;173,8
04.01.2018 08:45;0;0;173,7
04.01.2018 09:00;0;0;186,5
04.01.2018 09:15;0;0;231,7
04.01.2018 09:30;0;0;270,3
04.01.2018 09:45;0;0;276,4
04.01.2018 10:00;0;0;295,8
04.01.2018 10:15;0;0;302,6
04.01.2018 10:30;0;0;315,3
04.01.2018 10:45;0;0;341,7
04.01.2018 11:00;0;0;361
04.01.2018 11:15;0;0;354,8
04.01.2018 11:30;0;0;341,3
04.01.2018 11:45;0;0;374,4
04.01.2018 12:00;0;0;354,6
04.01.2018 12:15;0;0;341,3
04.01.2018 12:30;0;0;315
04.01.2018 12:45;0;0;283
04.01.2018 13:00;0;0;282,8
04.01.2018 13:15;0;0;283,2
04.01.2018 13:30;0;0;283,4
04.01.2018 13:45;0;0;309,7
04.01.2018 14:00;0;0;270,8
04.01.2018 14:15;0;0;238,7
04.01.2018 14:30;0;0;244,8
04.01.2018 14:45;0;0;238,4
04.01.2018 15:00;0;0;238,4
04.01.2018 15:15;0;0;231,6
04.01.2018 15:30;0;0;211,6
04.01.2018 15:45;0;0;198,7
04.01.2018 16:00;0;0;172,5
04.01.2018 16:15;0;0;172,5
04.01.2018 16:30;0;0;173
04.01.2018 16:45;0;0;172,9
04.01.2018 17:00;0;0;172,9
04.01.2018 17:15;0;0;172,5
04.01.2018 17:30;0;0;172,9
04.01.2018 17:45;0;0;172,8
04.01.2018 18:00;0;0;173
04.01.2018 18:15;0;0;173,3
04.01.2018 18:30;0;0;173,6
04.01.2018 18:45;0;0;173,6
04.01.2018 19:00;0;0;173,7
04.01.2018 19:15;0;0;174
04.01.2018 19:30;0;0;174,2
04.01.2018 19:45;0;0;174,7
04.01.2018 20:00;0;0;175,4
04.01.2018 20:15;0;0;176,1
04.01.2018 20:30;0;0;176,7
04.01.2018 20:45;0;0;177,5
04.01.2018 21:00;0;0;178,1
04.01.2018 21:15;0;0;178,7
04.01.2018 21:30;0;0;178,7
04.01.2018 21:45;0;0;179,4
04.01.2018 22:00;0;0;180
04.01.2018 22:15;0;0;181,3
04.01.2018 22:30;0;0;181,6
04.01.2018 22:45;0;0;183,1
04.01.2018 23:00;0;0;184,1
04.01.2018 23:15;0;0;185
04.01.2018 23:30;0;0;186
04.01.2018 23:45;0;0;187,4
05.01.2018 00:00;0;0;188,6
05.01.2018 00:15;0;0;189,7
05.01.2018 00:30;0;0;190,5
05.01.2018 00:45;0;0;191,4
05.01.2018 01:00;0;0;192,4
05.01.2018 01:15;0;0;192,2
05.01.2018 01:30;0;0;192,4
05.01.2018 01:45;0;0;192,7
05.01.2018 02:00;0;0;193,6
05.01.2018 02:15;0;0;193,3
05.01.2018 02:30;0;0;193,4
05.01.2018 02:45;0;0;193,9
05.01.2018 03:00;0;0;193,6
05.01.2018 03:15;0;0;193,2
05.01.2018 03:30;0;0;193,7
05.01.2018 03:45;0;0;193,9
05.01.2018 04:00;0;0;193,8
05.01.2018 04:15;0;0;193,6
05.01.2018 04:30;0;0;193,4
05.01.2018 04:45;0;0;193,7
05.01.2018 05:00;0;0;189
05.01.2018 05:15;0;0;191,2
05.01.2018 05:30;0;0;190,9
05.01.2018 05:45;0;0;190,2
05.01.2018 06:00;0;0;188,1
05.01.2018 06:15;0;0;185,2
05.01.2018 06:30;0;0;183
05.01.2018 06:45;0;0;181,3
05.01.2018 07:00;0;0;179,9
05.01.2018 07:15;0;0;178,2
05.01.2018 07:30;0;0;177,5
05.01.2018 07:45;0;0;176,3
05.01.2018 08:00;0;0;175,5
05.01.2018 08:15;0;0;174,4
05.01.2018 08:30;0;0;173,8
05.01.2018 08:45;0;0;173,7
05.01.2018 09:00;0;0;179,8
05.01.2018 09:15;0;0;199,1
05.01.2018 09:30;0;0;237,9
05.01.2018 09:45;0;0;263,7
05.01.2018 10:00;0;0;302,6
05.01.2018 10:15;0;0;322,3
05.01.2018 10:30;0;0;380,8
05.01.2018 10:45;0;0;426,4
05.01.2018 11:00;0;0;406,8
05.01.2018 11:15;0;0;498,5
05.01.2018 11:30;0;0;491,7
05.01.2018 11:45;0;0;563,4
05.01.2018 12:00;0;0;635,9
05.01.2018 12:15;0;0;439,8
05.01.2018 12:30;0;0;446,1
05.01.2018 12:45;0;0;361,2
05.01.2018 13:00;0;0;380,5
05.01.2018 13:15;0;0;354,8
05.01.2018 13:30;0;0;303,2
05.01.2018 13:45;0;0;290,5
05.01.2018 14:00;0;0;283,6
05.01.2018 14:15;0;0;270,9
05.01.2018 14:30;0;0;284,3
05.01.2018 14:45;0;0;232
05.01.2018 15:00;0;0;212,1
05.01.2018 15:15;0;0;198,9
05.01.2018 15:30;0;0;192,8
05.01.2018 15:45;0;0;179,9
05.01.2018 16:00;0;0;179,5
05.01.2018 16:15;0;0;172,9
05.01.2018 16:30;0;0;173,5
05.01.2018 16:45;0;0;173,8
05.01.2018 17:00;0;0;173,6
05.01.2018 17:15;0;0;172,8
05.01.2018 17:30;0;0;173,3
05.01.2018 17:45;0;0;173,4
05.01.2018 18:00;0;0;173,5
05.01.2018 18:15;0;0;173,4
05.01.2018 18:30;0;0;173,7
05.01.2018 18:45;0;0;173,9
05.01.2018 19:00;0;0;174,2
05.01.2018 19:15;0;0;174,5
05.01.2018 19:30;0;0;174,8
05.01.2018 19:45;0;0;175,2
05.01.2018 20:00;0;0;175,7
05.01.2018 20:15;0;0;176,6
05.01.2018 20:30;0;0;176,6
05.01.2018 20:45;0;0;177,1
05.01.2018 21:00;0;0;177,6
05.01.2018 21:15;0;0;178,6
05.01.2018 21:30;0;0;178,6
05.01.2018 21:45;0;0;179,5
05.01.2018 22:00;0;0;179,9
05.01.2018 22:15;0;0;180,9
05.01.2018 22:30;0;0;181,8
05.01.2018 22:45;0;0;182,9
05.01.2018 23:00;0;0;184,1
05.01.2018 23:15;0;0;185,1
05.01.2018 23:30;0;0;185,8
05.01.2018 23:45;0;0;187,6
06.01.2018 00:00;0;0;189,1
06.01.2018 00:15;0;0;189,9
06.01.2018 00:30;0;0;190,8
06.01.2018 00:45;0;0;191
06.01.2018 01:00;0;0;191,1
06.01.2018 01:15;0;0;192
06.01.2018 01:30;0;0;192,6
06.01.2018 01:45;0;0;193,1
06.01.2018 02:00;0;0;192,7
06.01.2018 02:15;0;0;192,8
06.01.2018 02:30;0;0;192,8
06.01.2018 02:45;0;0;193,6
06.01.2018 03:00;0;0;192,9
06.01.2018 03:15;0;0;193,1
06.01.2018 03:30;0;0;193,1
06.01.2018 03:45;0;0;193,1
06.01.2018 04:00;0;0;193,2
06.01.2018 04:15;0;0;194,1
06.01.2018 04:30;0;0;193,7
06.01.2018 04:45;0;0;193,3
06.01.2018 05:00;0;0;192
06.01.2018 05:15;0;0;191,8
06.01.2018 05:30;0;0;190,9
06.01.2018 05:45;0;0;189,7
06.01.2018 06:00;0;0;187,7
06.01.2018 06:15;0;0;185,8
06.01.2018 06:30;0;0;183,7
06.01.2018 06:45;0;0;181,6
06.01.2018 07:00;0;0;180
06.01.2018 07:15;0;0;178,5
06.01.2018 07:30;0;0;178,2
06.01.2018 07:45;0;0;176,6
06.01.2018 08:00;0;0;175,2
06.01.2018 08:15;0;0;174,4
06.01.2018 08:30;0;0;180,8
06.01.2018 08:45;0;0;193,3
06.01.2018 09:00;0;0;206,1
06.01.2018 09:15;0;0;245,1
06.01.2018 09:30;0;0;323,1
06.01.2018 09:45;0;0;355,5
06.01.2018 10:00;0;0;407,3
06.01.2018 10:15;0;0;400,2
06.01.2018 10:30;0;0;485,2
06.01.2018 10:45;0;0;459,3
06.01.2018 11:00;0;0;465,9
06.01.2018 11:15;0;0;505,6
06.01.2018 11:30;0;0;453,2
06.01.2018 11:45;0;0;427
06.01.2018 12:00;0;0;518,5
06.01.2018 12:15;0;0;610,2
06.01.2018 12:30;0;0;394,1
06.01.2018 12:45;0;0;355,2
06.01.2018 13:00;0;0;354,9
06.01.2018 13:15;0;0;335,9
06.01.2018 13:30;0;0;283,7
06.01.2018 13:45;0;0;264,5
06.01.2018 14:00;0;0;297
06.01.2018 14:15;0;0;271,4
06.01.2018 14:30;0;0;284,5
06.01.2018 14:45;0;0;278,1
06.01.2018 15:00;0;0;258,4
06.01.2018 15:15;0;0;212,6
06.01.2018 15:30;0;0;206,1
06.01.2018 15:45;0;0;193,2
06.01.2018 16:00;0;0;186,8
06.01.2018 16:15;0;0;179,8
06.01.2018 16:30;0;0;173,7
06.01.2018 16:45;0;0;173,8
06.01.2018 17:00;0;0;173,7
06.01.2018 17:15;0;0;173,2
06.01.2018 17:30;0;0;173,4
06.01.2018 17:45;0;0;173,4
06.01.2018 18:00;0;0;173,9
06.01.2018 18:15;0;0;173,5
06.01.2018 18:30;0;0;173,5
06.01.2018 18:45;0;0;173,6
06.01.2018 19:00;0;0;174,3
06.01.2018 19:15;0;0;174,3
06.01.2018 19:30;0;0;174,7
06.01.2018 19:45;0;0;175,4
06.01.2018 20:00;0;0;176,2
06.01.2018 20:15;0;0;176,4
06.01.2018 20:30;0;0;177
06.01.2018 20:45;0;0;177,5
06.01.2018 21:00;0;0;178,3
06.01.2018 21:15;0;0;178,7
06.01.2018 21:30;0;0;179
06.01.2018 21:45;0;0;179,3
06.01.2018 22:00;0;0;180
06.01.2018 22:15;0;0;181,3
06.01.2018 22:30;0;0;181,8
06.01.2018 22:45;0;0;182,9
06.01.2018 23:00;0;0;183,7
06.01.2018 23:15;0;0;185,3
06.01.2018 23:30;0;0;185,7
06.01.2018 23:45;0;0;187,1
07.01.2018 00:00;0;0;187,9
07.01.2018 00:15;0;0;189,5
07.01.2018 00:30;0;0;190,6
07.01.2018 00:45;0;0;190,7
07.01.2018 01:00;0;0;191,5
07.01.2018 01:15;0;0;192
07.01.2018 01:30;0;0;192,3
07.01.2018 01:45;0;0;192,3
07.01.2018 02:00;0;0;192,1
07.01.2018 02:15;0;0;192,4
07.01.2018 02:30;0;0;192,3
07.01.2018 02:45;0;0;193,3
07.01.2018 03:00;0;0;193
07.01.2018 03:15;0;0;192,9
07.01.2018 03:30;0;0;192,6
07.01.2018 03:45;0;0;192,9
07.01.2018 04:00;0;0;192,8
07.01.2018 04:15;0;0;193,1
07.01.2018 04:30;0;0;193,2
07.01.2018 04:45;0;0;192,1
07.01.2018 05:00;0;0;191,7
07.01.2018 05:15;0;0;191,4
07.01.2018 05:30;0;0;190,7
07.01.2018 05:45;0;0;189,5
07.01.2018 06:00;0;0;187,4
07.01.2018 06:15;0;0;185,4
07.01.2018 06:30;0;0;182,7
07.01.2018 06:45;0;0;180,8
07.01.2018 07:00;0;0;179,7
07.01.2018 07:15;0;0;178,5
07.01.2018 07:30;0;0;177,5
07.01.2018 07:45;0;0;176,2
07.01.2018 08:00;0;0;175
07.01.2018 08:15;0;0;173,8
07.01.2018 08:30;0;0;173,4
07.01.2018 08:45;0;0;172,9
07.01.2018 09:00;0;0;172,6
07.01.2018 09:15;0;0;185,6
07.01.2018 09:30;0;0;184,8
07.01.2018 09:45;0;0;190,7
07.01.2018 10:00;0;0;196,9
07.01.2018 10:15;0;0;203,9
07.01.2018 10:30;0;0;197,2
07.01.2018 10:45;0;0;196,4
07.01.2018 11:00;0;0;203,3
07.01.2018 11:15;0;0;203,4
07.01.2018 11:30;0;0;203,6
07.01.2018 11:45;0;0;196,5
07.01.2018 12:00;0;0;216,2
07.01.2018 12:15;0;0;222,7
07.01.2018 12:30;0;0;249,5
07.01.2018 12:45;0;0;223,3
07.01.2018 13:00;0;0;216,5
07.01.2018 13:15;0;0;203,5
07.01.2018 13:30;0;0;204,2
07.01.2018 13:45;0;0;198,1
07.01.2018 14:00;0;0;191
07.01.2018 14:15;0;0;185
07.01.2018 14:30;0;0;185,6
07.01.2018 14:45;0;0;185
07.01.2018 15:00;0;0;185,2
07.01.2018 15:15;0;0;178,6
07.01.2018 15:30;0;0;172,1
07.01.2018 15:45;0;0;172,6
07.01.2018 16:00;0;0;172,8
07.01.2018 16:15;0;0;172,6
07.01.2018 16:30;0;0;172,5
07.01.2018 16:45;0;0;172,4
07.01.2018 17:00;0;0;172,6
07.01.2018 17:15;0;0;172,8
07.01.2018 17:30;0;0;172,7
07.01.2018 17:45;0;0;172,2
07.01.2018 18:00;0;0;172,6
07.01.2018 18:15;0;0;172,8
07.01.2018 18:30;0;0;173,2
07.01.2018 18:45;0;0;173,4
07.01.2018 19:00;0;0;173,3
07.01.2018 19:15;0;0;173,4
07.01.2018 19:30;0;0;173,8
07.01.2018 19:45;0;0;174,5
07.01.2018 20:00;0;0;174,7
07.01.2018 20:15;0;0;175,5
07.01.2018 20:30;0;0;176,7
07.01.2018 20:45;0;0;177,5
07.01.2018 21:00;0;0;178,1
07.01.2018 21:15;0;0;178,5
07.01.2018 21:30;0;0;178,8
07.01.2018 21:45;0;0;179,9
07.01.2018 22:00;0;0;180,3
07.01.2018 22:15;0;0;181,5
07.01.2018 22:30;0;0;182,9
07.01.2018 22:45;0;0;183,9
07.01.2018 23:00;0;0;184,6
07.01.2018 23:15;0;0;185,2
07.01.2018 23:30;0;0;186,5
07.01.2018 23:45;0;0;188,6
08.01.2018 00:00;0;0;189,2
08.01.2018 00:15;0;0;189,7
08.01.2018 00:30;0;0;190,4
08.01.2018 00:45;0;0;190,9
08.01.2018 01:00;0;0;191,7
08.01.2018 01:15;0;0;192,7
08.01.2018 01:30;0;0;192
08.01.2018 01:45;0;0;192,6
08.01.2018 02:00;0;0;192,8
08.01.2018 02:15;0;0;192,4
08.01.2018 02:30;0;0;192,6
08.01.2018 02:45;0;0;193,5
08.01.2018 03:00;0;0;194
08.01.2018 03:15;0;0;193,1
08.01.2018 03:30;0;0;193,4
08.01.2018 03:45;0;0;193,6
08.01.2018 04:00;0;0;193,3
08.01.2018 04:15;0;0;193,5
08.01.2018 04:30;0;0;193,4
08.01.2018 04:45;0;0;192,3
08.01.2018 05:00;0;0;191,4
08.01.2018 05:15;0;0;191,1
08.01.2018 05:30;0;0;190,6
08.01.2018 05:45;0;0;190,5
08.01.2018 06:00;0;0;188,7
08.01.2018 06:15;0;0;186,6
08.01.2018 06:30;0;0;183,1
08.01.2018 06:45;0;0;181,6
08.01.2018 07:00;0;0;180
08.01.2018 07:15;0;0;178,3
08.01.2018 07:30;0;0;177,1
08.01.2018 07:45;0;0;176
08.01.2018 08:00;0;0;175,2
08.01.2018 08:15;0;0;174,4
08.01.2018 08:30;0;0;173,3
08.01.2018 08:45;0;0;173,2
08.01.2018 09:00;0;0;172,9
08.01.2018 09:15;0;0;172
08.01.2018 09:30;0;0;184,6
08.01.2018 09:45;0;0;190,8
08.01.2018 10:00;0;0;197,5
08.01.2018 10:15;0;0;190,6
08.01.2018 10:30;0;0;197,4
08.01.2018 10:45;0;0;203,4
08.01.2018 11:00;0;0;209,9
08.01.2018 11:15;0;0;216,3
08.01.2018 11:30;0;0;230
08.01.2018 11:45;0;0;243,4
08.01.2018 12:00;0;0;223,5
08.01.2018 12:15;0;0;210
08.01.2018 12:30;0;0;210,4
08.01.2018 12:45;0;0;198,2
08.01.2018 13:00;0;0;190,9
08.01.2018 13:15;0;0;203,7
08.01.2018 13:30;0;0;223,7
08.01.2018 13:45;0;0;250,2
08.01.2018 14:00;0;0;223,9
08.01.2018 14:15;0;0;211,5
08.01.2018 14:30;0;0;204,7
08.01.2018 14:45;0;0;185,3
08.01.2018 15:00;0;0;191,7
08.01.2018 15:15;0;0;179
08.01.2018 15:30;0;0;185,7
08.01.2018 15:45;0;0;185,1
08.01.2018 16:00;0;0;178,7
08.01.2018 16:15;0;0;172,2
08.01.2018 16:30;0;0;172,5
08.01.2018 16:45;0;0;172,4
08.01.2018 17:00;0;0;172,4
08.01.2018 17:15;0;0;172,3
08.01.2018 17:30;0;0;172,6
08.01.2018 17:45;0;0;172,3
08.01.2018 18:00;0;0;172,3
08.01.2018 18:15;0;0;172,5
08.01.2018 18:30;0;0;173,7
08.01.2018 18:45;0;0;173,8
08.01.2018 19:00;0;0;173,3
08.01.2018 19:15;0;0;173,1
08.01.2018 19:30;0;0;173,9
08.01.2018 19:45;0;0;174,6
08.01.2018 20:00;0;0;174,7
08.01.2018 20:15;0;0;175,4
08.01.2018 20:30;0;0;176
08.01.2018 20:45;0;0;177,4
08.01.2018 21:00;0;0;177,5
08.01.2018 21:15;0;0;178,4
08.01.2018 21:30;0;0;178,6
08.01.2018 21:45;0;0;179,4
08.01.2018 22:00;0;0;180
08.01.2018 22:15;0;0;180,9
08.01.2018 22:30;0;0;182
08.01.2018 22:45;0;0;184
08.01.2018 23:00;0;0;185
08.01.2018 23:15;0;0;186,1
08.01.2018 23:30;0;0;187,4
08.01.2018 23:45;0;0;187,8
09.01.2018 00:00;0;0;187,9
09.01.2018 00:15;0;0;189,8
09.01.2018 00:30;0;0;190,2
09.01.2018 00:45;0;0;191
09.01.2018 01:00;0;0;191,6
09.01.2018 01:15;0;0;193,8
09.01.2018 01:30;0;0;192,6
09.01.2018 01:45;0;0;192,2
09.01.2018 02:00;0;0;192,2
09.01.2018 02:15;0;0;192,8
09.01.2018 02:30;0;0;192,7
09.01.2018 02:45;0;0;194
09.01.2018 03:00;0;0;193,8
09.01.2018 03:15;0;0;193,8
09.01.2018 03:30;0;0;193
09.01.2018 03:45;0;0;192,9
09.01.2018 04:00;0;0;193,4
09.01.2018 04:15;0;0;193,3
09.01.2018 04:30;0;0;192,7
09.01.2018 04:45;0;0;192,3
09.01.2018 05:00;0;0;191,6
09.01.2018 05:15;0;0;191,5
09.01.2018 05:30;0;0;191,2
09.01.2018 05:45;0;0;190,2
09.01.2018 06:00;0;0;188,8
09.01.2018 06:15;0;0;185,6
09.01.2018 06:30;0;0;182,4
09.01.2018 06:45;0;0;180,6
09.01.2018 07:00;0;0;179,9
09.01.2018 07:15;0;0;177,9
09.01.2018 07:30;0;0;177,2
09.01.2018 07:45;0;0;175,6
09.01.2018 08:00;0;0;174,6
09.01.2018 08:15;0;0;174,3
09.01.2018 08:30;0;0;173,9
09.01.2018 08:45;0;0;172,6
09.01.2018 09:00;0;0;179
09.01.2018 09:15;0;0;185,6
09.01.2018 09:30;0;0;197,7
09.01.2018 09:45;0;0;203,9
09.01.2018 10:00;0;0;210,2
09.01.2018 10:15;0;0;209,8
09.01.2018 10:30;0;0;224
09.01.2018 10:45;0;0;236,4
09.01.2018 11:00;0;0;249,3
09.01.2018 11:15;0;0;268,9
09.01.2018 11:30;0;0;289,1
09.01.2018 11:45;0;0;275,7
09.01.2018 12:00;0;0;295,2
09.01.2018 12:15;0;0;347,3
09.01.2018 12:30;0;0;302,3
09.01.2018 12:45;0;0;282,7
09.01.2018 13:00;0;0;276,2
09.01.2018 13:15;0;0;276,5
09.01.2018 13:30;0;0;269,7
09.01.2018 13:45;0;0;231,1
09.01.2018 14:00;0;0;198,5
09.01.2018 14:15;0;0;198,6
09.01.2018 14:30;0;0;198,6
09.01.2018 14:45;0;0;192
09.01.2018 15:00;0;0;191,8
09.01.2018 15:15;0;0;191,9
09.01.2018 15:30;0;0;185,6
09.01.2018 15:45;0;0;185,5
09.01.2018 16:00;0;0;212
09.01.2018 16:15;0;0;198,8
09.01.2018 16:30;0;0;179,3
09.01.2018 16:45;0;0;172,8
09.01.2018 17:00;0;0;172,5
09.01.2018 17:15;0;0;172,1
09.01.2018 17:30;0;0;172,6
09.01.2018 17:45;0;0;172,2
09.01.2018 18:00;0;0;172,6
09.01.2018 18:15;0;0;172,7
09.01.2018 18:30;0;0;173,4
09.01.2018 18:45;0;0;173,4
09.01.2018 19:00;0;0;173,5
09.01.2018 19:15;0;0;173,8
09.01.2018 19:30;0;0;174,2
09.01.2018 19:45;0;0;175
09.01.2018 20:00;0;0;175,3
09.01.2018 20:15;0;0;176
09.01.2018 20:30;0;0;176,9
09.01.2018 20:45;0;0;177,3
09.01.2018 21:00;0;0;177,3
09.01.2018 21:15;0;0;178,4